Temp_Advection
nan nan nan nan nan nan nan nan nan nan nan nan nan nan nan nan nan nan nan nan nan nan nan nan nan nan nan nan nan nan nan nan nan nan nan nan nan nan nan nan nan nan nan nan
nan -1 -1 -0 0 0 0 -0 0 -0 0 0 -0 -0 0 -0 -0 -0 0 -0 -1 -0 -0 0 0 0 0 0 0 0 -0 0 0 0 0 0 0 0 0 0 0 0 0 nan
nan -0 -0 0 0 0 0 -0 -0 0 -0 0 -0 -0 -0 0 0 1 1 0 -0 -1 -1 -0 0 0 0 0 0 0 0 0 0 0 0 0 0 0 0 0 0 0 0 nan
nan 0 0 0 0 0 0 -0 0 -0 -0 0 0 -0 0 0 1 1 0 0 1 0 -1 -0 0 0 0 0 0 -0 0 0 0 0 0 0 0 0 0 0 0 0 0 nan
nan 0 0 0 0 0 0 -0 0 -0 0 -0 0 -0 -1 0 -0 -0 0 1 1 1 0 -0 -0 0 -0 0 0 0 0 0 0 0 0 0 0 0 0 0 0 0 0 nan
nan -0 -0 -0 -0 -0 0 0 -0 -0 -0 -0 0 -0 -0 0 0 -0 0 1 1 1 1 0 0 0 -0 0 0 0 0 0 0 0 0 0 0 0 0 0 0 0 0 nan
nan 0 -0 0 0 -0 -0 -0 -0 -0 -0 -1 -0 0 -0 0 -0 0 -0 0 0 1 1 1 0 0 0 0 0 0 0 0 0 0 0 0 0 0 0 0 0 0 0 nan
nan 0 0 0 0 0 0 0 -0 0 -0 0 -0 -0 0 -0 0 0 0 0 0 0 1 1 1 1 1 1 1 1 0 -0 0 -0 0 0 0 0 0 0 0 0 0 nan
nan 0 -0 -0 -0 0 0 0 0 -0 0 -0 -0 -0 0 -0 0 0 1 0 0 0 1 1 1 1 2 1 1 1 0 0 0 0 0 0 0 0 0 0 0 0 0 nan
nan -0 -0 0 -0 -0 0 -0 -0 -0 0 -0 -0 0 0 0 -0 0 0 0 0 1 1 1 1 1 1 1 1 1 0 0 1 1 0 0 0 0 0 0 0 0 0 nan
nan -0 0 -0 1 1 0 0 -0 -0 -0 0 0 0 -0 0 0 -0 -0 0 0 1 1 1 1 1 1 1 1 1 1 0 0 0 0 0 0 0 0 0 0 0 0 nan
nan -0 0 0 -0 -0 0 0 0 0 0 0 0 -0 -0 -0 1 0 0 0 0 0 1 1 1 1 1 1 1 0 0 0 0 0 0 0 0 0 0 0 0 0 0 nan
nan 0 -0 0 0 0 0 0 0 0 -0 -0 -0 0 -0 -0 0 1 0 0 0 0 0 1 1 1 1 1 0 0 0 0 0 0 0 0 0 0 0 0 0 0 0 nan
nan 0 -0 0 -0 -0 -0 -0 0 -0 -0 -0 0 0 0 0 0 1 1 1 1 1 0 0 0 0 0 0 0 0 0 0 0 0 0 0 0 0 0 0 0 0 0 nan
nan 0 0 -0 -0 -0 -0 0 0 -0 -0 0 0 1 0 0 0 1 1 1 1 1 1 0 0 0 0 0 0 1 1 0 0 0 0 0 0 0 0 0 0 0 0 nan
nan 0 0 -0 -0 -0 -0 0 0 0 0 0 -0 0 0 0 -0 0 1 1 1 1 1 1 0 0 0 0 0 0 0 0 0 0 0 0 0 0 0 0 0 0 0 nan
nan 0 0 0 -0 0 0 1 1 0 -0 -0 0 1 -0 0 0 0 0 1 0 1 1 1 0 0 0 0 0 0 0 0 0 0 0 0 0 0 0 0 0 0 0 nan
nan 0 -0 0 0 -0 1 -0 0 -0 0 1 -0 0 0 0 0 1 0 -0 -0 0 1 0 0 0 0 0 1 0 0 0 0 0 0 0 0 0 0 0 0 0 0 nan
nan 0 0 0 0 -1 0 0 -0 1 0 1 0 -0 0 1 0 0 1 0 0 0 0 0 0 1 1 1 0 0 0 0 0 0 0 0 0 0 0 0 0 0 0 nan
nan 0 0 0 0 0 0 -0 -0 -0 0 -0 0 -0 0 1 0 0 1 1 1 1 0 1 1 0 0 0 0 0 0 0 0 0 0 0 0 0 0 -0 -0 -0 -0 nan
nan 0 0 -0 -0 -0 -0 0 0 0 0 0 0 -0 0 0 -0 1 1 1 1 1 1 1 1 1 0 0 0 0 0 0 0 0 0 -0 -0 0 0 0 -0 -0 -0 nan
nan -0 -0 -0 0 0 -1 0 0 -0 -0 -0 0 -0 -1 -0 1 2 2 2 1 1 1 1 1 1 1 0 0 0 0 0 0 -0 -0 0 -0 -0 -0 -0 -0 0 -0 nan
nan 0 0 0 -0 -1 -0 -0 -0 -0 -0 -0 0 0 -0 -0 1 1 2 2 1 1 1 1 1 1 1 0 0 0 0 0 -0 0 0 0 0 -0 -0 -0 -0 -0 0 nan
nan -0 -0 -0 -1 -0 -0 -0 -0 -0 -0 0 0 0 0 -1 0 0 1 1 1 1 1 1 0 0 0 0 0 0 0 0 0 0 0 0 0 -0 -0 -0 -0 -0 -0 nan
nan -1 -0 -1 -0 -0 -0 -0 -0 0 0 0 -0 -0 0 -0 -0 0 -0 0 0 0 0 0 0 0 0 0 0 0 0 0 0 0 0 -0 -0 -0 -0 -0 -0 0 1 nan
nan nan nan nan nan nan nan nan nan nan nan nan nan nan nan nan nan nan nan nan nan nan nan nan nan nan nan nan nan nan nan nan nan nan nan nan nan nan nan nan nan nan nan nan
Wind_Speed
14 5 11 13 12 7 3 4 5 4 5 5 8 7 10 17 14 15 25 26 25 25 25 30 26 25 25 24 23 20 19 17 14 14 13 12 11 10 10 9 10 11 11 11
4 12 11 10 10 9 8 6 4 3 4 2 4 12 9 10 12 19 22 26 26 25 24 32 28 28 28 27 25 22 20 17 15 13 13 12 12 12 11 11 11 11 12 12
8 1 12 8 4 7 8 8 5 3 5 3 3 5 6 7 12 13 9 12 26 28 29 29 30 31 30 29 28 24 22 19 16 15 14 13 12 11 11 12 12 12 13 13
9 10 5 6 7 7 5 6 6 8 5 4 5 4 7 9 8 8 11 13 16 27 27 27 32 33 31 30 29 25 23 21 18 15 13 11 11 11 11 11 12 13 13 14
6 4 6 4 3 8 2 2 6 4 3 4 3 2 6 11 6 8 14 17 16 19 23 31 32 31 31 30 30 28 24 23 20 16 14 12 11 10 11 12 12 13 13 13
3 2 2 2 4 3 8 7 7 4 4 2 7 7 5 6 6 9 12 15 15 20 24 22 30 30 29 29 30 29 26 24 22 18 16 14 13 11 10 11 12 12 13 13
3 3 2 1 6 2 1 5 2 1 1 6 1 5 10 3 3 8 15 16 13 15 23 27 31 32 30 30 30 31 28 26 24 21 18 16 13 10 10 11 11 12 13 13
7 4 9 6 4 7 7 5 5 8 5 4 2 7 6 5 11 16 19 16 13 14 17 24 28 30 30 30 29 31 29 27 25 23 20 17 14 11 10 10 11 12 12 12
6 4 3 5 2 3 5 5 1 5 1 3 5 4 2 6 6 9 13 16 15 16 17 21 23 27 28 28 27 29 29 25 25 23 22 20 17 13 11 11 12 11 12 12
2 4 1 1 1 1 2 1 3 2 4 5 5 5 5 9 11 9 11 17 18 18 19 20 21 23 21 23 23 23 23 23 23 23 23 21 18 15 12 12 11 11 11 12
3 4 2 4 7 8 3 1 2 2 3 5 2 6 0 8 16 16 15 21 21 21 21 22 23 22 24 24 24 24 24 22 22 22 21 20 18 16 14 13 12 11 13 13
2 4 4 4 1 1 1 4 5 4 5 3 3 6 3 4 9 18 20 24 23 22 22 22 23 23 23 24 24 25 25 23 21 21 20 18 17 15 14 13 13 12 12 13
6 3 3 2 2 3 3 5 3 2 1 5 5 5 4 4 9 20 24 26 25 24 23 23 23 23 23 23 24 24 22 20 19 18 17 16 15 14 13 13 13 13 13 13
3 2 5 6 4 5 5 6 6 4 2 4 8 2 4 6 10 16 23 27 27 25 25 23 23 24 23 23 22 21 20 18 17 16 16 15 14 13 13 12 12 13 13 13
2 5 2 4 4 3 0 5 12 14 14 8 5 10 7 16 14 19 26 27 27 26 25 25 25 23 22 20 20 19 18 17 16 15 14 13 12 10 10 9 9 9 10 11
1 2 2 2 4 4 2 4 9 11 4 6 2 5 3 10 22 19 29 31 26 28 27 26 23 22 21 20 19 18 16 15 14 13 12 11 10 10 10 10 11 11 12 14
4 4 2 2 2 1 6 9 11 6 6 11 12 11 7 6 15 27 29 30 28 31 29 25 23 23 22 20 19 18 16 15 14 12 11 10 9 9 9 9 10 11 12 14
3 4 2 3 1 5 5 1 1 9 4 7 1 1 3 8 12 21 26 31 30 31 30 27 25 23 21 20 19 17 16 14 13 11 9 7 6 6 7 8 9 11 13 15
3 2 3 4 3 6 4 4 6 7 9 8 8 7 11 22 18 10 21 26 30 30 29 27 24 22 21 19 16 14 13 12 11 9 8 8 8 9 10 11 12 13 14 15
3 3 3 3 4 6 2 2 1 1 4 8 8 12 15 18 6 5 23 26 28 28 26 24 23 20 17 15 13 13 11 10 9 7 7 8 9 11 12 13 15 15 15 16
3 1 6 3 3 5 3 2 3 5 5 7 6 16 19 3 2 26 27 26 25 24 24 22 20 18 16 14 12 11 9 7 6 6 7 9 12 13 14 15 16 16 17 17
6 6 4 3 2 7 8 2 2 2 6 3 10 16 16 19 21 28 27 26 24 24 22 20 18 16 14 12 10 8 7 6 6 8 10 11 13 14 14 15 16 16 16 17
1 3 4 2 2 5 11 10 6 3 8 10 13 14 18 20 21 24 26 26 23 21 20 18 15 13 11 10 8 6 5 6 7 9 11 12 12 13 13 14 14 14 15 16
1 2 2 4 4 7 11 11 12 9 9 9 9 14 14 21 21 25 24 22 20 18 16 14 12 10 8 6 5 5 5 7 9 10 11 12 12 14 15 15 15 16 16 17
4 5 2 4 5 8 12 11 10 13 14 15 15 13 15 17 20 21 20 18 16 14 12 11 9 7 5 4 4 6 7 8 9 9 9 10 11 12 13 14 15 15 14 14
8 5 3 2 7 2 10 9 8 11 13 14 16 18 15 14 18 17 17 14 12 11 9 7 5 4 4 5 6 7 7 8 8 9 10 11 12 13 15 16 18 17 18 18
Wind_Direction
197 185 207 206 212 240 272 311 258 114 150 143 226 251 214 178 201 220 180 180 188 194 199 174 191 186 184 185 182 188 186 189 189 186 186 183 183 182 181 174 172 169 169 165
152 231 215 219 216 216 256 244 252 75 131 156 248 237 244 167 190 210 185 182 187 192 194 185 182 187 188 189 188 191 191 191 186 186 184 189 184 185 186 180 177 175 174 172
194 218 205 230 185 222 216 198 216 165 139 254 320 279 226 189 166 192 190 159 184 185 187 188 182 189 191 194 194 194 194 191 188 189 190 193 191 190 187 185 183 183 181 183
226 239 193 164 212 173 227 212 207 140 127 222 165 265 209 181 181 165 204 206 169 185 186 187 187 190 192 196 195 197 197 191 192 193 193 192 194 192 190 191 190 192 189 191
215 136 157 182 173 176 214 11 153 149 173 55 198 77 258 135 187 192 188 196 198 191 184 187 189 191 194 196 197 195 202 193 195 192 192 189 186 191 192 194 196 198 199 199
72 357 26 84 59 341 139 88 63 52 102 303 200 170 243 189 194 173 157 166 189 199 197 187 194 190 192 198 199 196 199 197 195 192 192 189 189 198 196 196 200 202 205 206
116 187 95 138 79 33 110 129 85 72 355 231 260 195 233 151 21 168 147 155 183 195 201 192 185 185 189 194 197 196 197 199 196 193 194 193 196 196 197 201 205 209 211 213
166 254 165 186 183 173 198 189 169 185 201 212 102 227 244 87 87 98 135 148 159 171 179 185 178 179 188 190 192 193 194 198 196 194 197 198 200 200 202 203 208 212 215 217
160 193 49 26 36 102 193 207 168 106 299 63 203 253 196 140 132 134 137 148 154 157 172 167 169 173 185 185 184 187 187 196 195 195 203 203 204 206 203 211 212 216 220 224
289 108 27 108 337 82 179 262 96 9 174 232 236 222 218 200 181 170 163 151 149 150 151 157 169 177 175 181 178 183 189 192 193 196 202 206 208 209 212 217 219 223 227 232
160 107 132 143 208 173 162 214 245 136 175 184 197 253 68 208 178 170 165 154 149 146 147 149 152 158 164 164 166 172 176 189 191 195 201 205 208 211 216 223 226 226 232 238
156 114 158 191 85 338 68 186 173 147 233 221 149 267 21 329 158 158 154 154 156 154 151 155 156 156 161 163 167 170 176 184 188 192 199 203 208 213 216 220 224 230 235 240
198 200 119 283 22 12 206 197 158 141 95 204 152 259 28 39 118 152 142 152 154 152 152 152 149 152 154 157 161 166 171 177 180 187 193 200 206 209 214 220 225 231 236 239
128 234 183 194 158 123 186 182 173 148 155 179 219 212 235 195 155 150 150 155 156 157 154 151 153 154 158 162 163 166 166 168 170 177 183 189 195 203 211 220 226 230 233 236
212 198 221 89 79 75 117 170 179 201 212 193 237 205 205 195 183 166 157 160 158 157 157 158 162 163 163 160 157 159 162 167 171 177 180 185 192 200 208 214 222 230 235 239
181 220 105 169 99 77 280 189 194 224 262 277 157 281 185 149 151 156 162 163 163 166 166 168 167 161 158 158 160 162 165 169 172 177 181 187 196 205 214 223 231 238 244 250
176 152 108 255 39 263 299 197 189 186 206 207 218 227 147 164 169 177 168 168 168 174 173 169 165 162 159 159 160 160 162 163 166 171 176 184 196 208 221 233 243 248 254 258
167 121 99 141 90 256 264 95 164 222 216 203 31 128 163 148 159 167 178 173 174 179 173 169 166 165 163 163 164 166 167 168 169 170 177 189 204 223 238 251 259 265 268 269
56 111 153 167 198 300 283 217 168 169 263 200 189 128 115 120 119 105 172 184 178 174 171 171 169 166 167 166 166 169 173 175 179 187 204 223 239 251 260 265 266 269 271 271
166 226 155 162 193 218 253 116 135 72 298 330 149 151 149 145 162 164 165 179 170 172 172 169 169 171 170 170 174 177 180 189 199 217 239 258 268 272 274 275 277 280 283 284
142 188 210 199 240 290 30 123 142 114 252 335 139 153 159 132 80 155 163 163 172 169 167 168 170 173 174 176 182 188 195 201 218 243 264 275 278 278 277 277 281 284 286 287
164 158 188 174 138 265 7 79 181 348 15 64 139 149 128 130 138 153 158 160 163 163 163 165 169 169 171 176 183 190 202 221 248 268 276 276 276 278 280 280 280 281 283 286
258 174 173 152 155 63 50 64 33 27 87 88 128 143 153 144 141 150 150 152 153 156 159 160 164 165 169 175 183 199 222 249 266 272 272 272 275 279 280 280 281 282 283 286
156 354 67 113 65 76 68 69 66 74 88 103 122 143 145 140 145 140 143 145 148 149 154 157 161 165 172 182 203 232 250 264 269 270 271 274 276 274 278 280 282 283 285 287
347 333 359 83 71 86 65 68 80 92 101 109 108 120 136 142 140 143 141 142 144 148 152 156 163 174 188 213 243 259 264 265 267 270 274 279 280 284 287 287 288 286 286 294
358 6 11 62 342 6 63 80 100 107 110 121 132 127 128 137 137 144 140 142 144 148 150 159 173 195 223 242 252 258 265 273 277 281 284 286 289 292 292 291 288 287 290 288
Height
1480 1484 1484 1479 1479 1478 1476 1482 1482 1479 1487 1491 1494 1491 1489 1490 1494 1495 1497 1501 1507 1510 1513 1518 1523 1526 1530 1533 1536 1539 1542 1545 1548 1551 1553 1556 1558 1560 1562 1565 1567 1570 1572 1574
1480 1480 1471 1473 1474 1478 1481 1484 1483 1486 1488 1492 1490 1490 1485 1485 1487 1490 1492 1496 1501 1507 1510 1515 1519 1523 1526 1530 1534 1536 1540 1544 1547 1550 1552 1555 1557 1559 1562 1564 1567 1569 1572 1575
1473 1466 1464 1469 1472 1477 1479 1482 1483 1484 1490 1493 1493 1491 1484 1482 1482 1486 1489 1492 1496 1500 1504 1510 1515 1519 1522 1526 1530 1534 1537 1542 1545 1548 1551 1553 1555 1558 1560 1563 1565 1568 1571 1574
1466 1464 1465 1468 1472 1475 1484 1474 1476 1487 1494 1507 1491 1512 1477 1477 1481 1483 1486 1489 1493 1497 1500 1505 1511 1515 1517 1522 1528 1532 1534 1539 1543 1546 1550 1552 1554 1557 1559 1562 1564 1567 1570 1573
1465 1464 1467 1469 1469 1470 1477 1475 1477 1484 1494 1498 1494 1512 1483 1472 1482 1482 1483 1487 1490 1493 1497 1500 1506 1512 1514 1519 1525 1529 1532 1537 1541 1545 1549 1551 1553 1555 1557 1560 1563 1566 1569 1572
1464 1466 1466 1467 1472 1471 1475 1480 1484 1487 1499 1523 1497 1499 1482 1474 1469 1473 1479 1483 1486 1489 1493 1498 1502 1509 1511 1516 1522 1527 1529 1534 1539 1543 1547 1550 1551 1553 1556 1559 1561 1564 1567 1570
1466 1467 1469 1469 1476 1475 1475 1484 1502 1507 1525 1510 1486 1494 1470 1467 1466 1463 1472 1479 1483 1486 1489 1495 1498 1503 1509 1512 1517 1523 1526 1531 1536 1541 1544 1548 1550 1552 1555 1557 1559 1562 1565 1567
1468 1474 1468 1466 1468 1475 1480 1477 1485 1498 1502 1491 1491 1493 1469 1469 1469 1469 1473 1478 1482 1484 1488 1492 1496 1500 1505 1509 1515 1519 1523 1527 1533 1538 1542 1546 1548 1551 1553 1555 1557 1560 1563 1565
1456 1458 1467 1468 1467 1468 1475 1478 1470 1485 1486 1501 1484 1470 1471 1471 1473 1474 1476 1478 1482 1484 1487 1490 1494 1498 1503 1508 1512 1516 1520 1525 1530 1535 1539 1543 1546 1549 1551 1553 1556 1558 1560 1563
1437 1464 1466 1471 1470 1470 1470 1472 1478 1488 1499 1490 1469 1461 1459 1471 1471 1473 1476 1478 1481 1484 1487 1490 1494 1499 1503 1507 1511 1515 1519 1523 1528 1532 1536 1540 1544 1547 1549 1552 1555 1557 1559 1561
1438 1447 1474 1471 1471 1468 1474 1476 1473 1472 1475 1480 1483 1468 1453 1454 1458 1466 1472 1476 1479 1483 1487 1490 1494 1498 1502 1506 1509 1513 1517 1521 1525 1529 1533 1537 1541 1544 1547 1550 1552 1555 1556 1558
1439 1448 1472 1461 1468 1469 1465 1461 1465 1469 1475 1482 1483 1470 1455 1456 1455 1461 1468 1473 1479 1483 1487 1491 1495 1498 1501 1504 1508 1511 1515 1519 1523 1527 1530 1534 1538 1541 1544 1547 1550 1552 1554 1555
1440 1450 1469 1463 1468 1468 1469 1464 1464 1466 1466 1480 1484 1469 1457 1456 1457 1462 1466 1473 1479 1483 1487 1491 1495 1497 1500 1503 1506 1509 1513 1518 1522 1525 1529 1532 1535 1538 1541 1544 1547 1549 1551 1552
1437 1437 1441 1446 1436 1448 1460 1454 1459 1458 1474 1466 1455 1458 1462 1459 1459 1463 1468 1473 1478 1483 1486 1490 1493 1495 1498 1501 1505 1508 1512 1517 1520 1523 1526 1530 1533 1535 1538 1541 1543 1546 1548 1549
1439 1445 1431 1442 1444 1445 1447 1450 1453 1452 1444 1450 1454 1445 1447 1451 1453 1459 1464 1472 1477 1480 1484 1487 1490 1493 1497 1501 1504 1508 1512 1516 1519 1522 1525 1528 1531 1534 1536 1538 1541 1543 1545 1546
1439 1443 1443 1446 1447 1454 1454 1449 1451 1450 1451 1452 1458 1458 1443 1443 1452 1460 1461 1466 1472 1477 1481 1485 1489 1492 1496 1500 1504 1508 1511 1515 1518 1521 1524 1527 1529 1532 1534 1536 1538 1540 1541 1543
1441 1443 1441 1439 1447 1452 1455 1451 1443 1444 1441 1434 1443 1431 1440 1446 1446 1450 1455 1460 1467 1473 1478 1483 1487 1491 1495 1499 1503 1507 1510 1514 1517 1520 1522 1525 1527 1529 1531 1533 1534 1536 1537 1538
1438 1440 1442 1455 1448 1440 1427 1434 1433 1427 1430 1431 1433 1433 1434 1435 1442 1449 1454 1457 1464 1469 1475 1481 1485 1489 1494 1498 1502 1505 1509 1512 1515 1518 1521 1523 1525 1527 1529 1530 1531 1532 1533 1534
1438 1440 1442 1442 1450 1430 1420 1431 1434 1430 1424 1424 1429 1434 1437 1439 1445 1453 1456 1459 1462 1468 1473 1478 1484 1489 1493 1497 1500 1504 1507 1511 1513 1516 1518 1521 1523 1524 1526 1527 1528 1528 1529 1529
1439 1439 1441 1451 1446 1446 1422 1426 1427 1427 1439 1425 1423 1431 1436 1440 1447 1448 1452 1457 1462 1468 1473 1479 1484 1488 1492 1496 1499 1502 1505 1508 1511 1513 1515 1517 1519 1520 1521 1522 1523 1523 1523 1523
1441 1442 1440 1441 1445 1430 1429 1429 1428 1436 1435 1430 1428 1431 1436 1440 1442 1444 1452 1458 1464 1469 1474 1479 1483 1487 1491 1494 1497 1500 1503 1506 1508 1510 1511 1512 1513 1514 1516 1516 1517 1517 1517 1517
1430 1433 1440 1438 1449 1440 1433 1432 1433 1438 1434 1432 1432 1435 1438 1441 1444 1447 1453 1458 1464 1469 1474 1478 1482 1486 1489 1492 1495 1498 1501 1503 1505 1506 1507 1508 1509 1510 1510 1511 1511 1511 1511 1511
1431 1424 1425 1424 1429 1437 1437 1439 1439 1437 1436 1436 1436 1438 1440 1444 1448 1451 1455 1460 1465 1470 1474 1478 1482 1485 1488 1491 1494 1496 1497 1499 1501 1502 1503 1504 1505 1505 1505 1505 1505 1506 1506 1505
1425 1426 1426 1428 1439 1440 1441 1441 1440 1440 1440 1440 1441 1443 1445 1446 1450 1454 1458 1463 1467 1471 1474 1478 1482 1485 1488 1490 1491 1493 1494 1496 1497 1499 1500 1500 1501 1501 1501 1501 1500 1500 1500 1499
1437 1431 1428 1440 1443 1444 1445 1445 1445 1444 1444 1445 1446 1448 1449 1451 1455 1458 1462 1466 1469 1472 1476 1478 1481 1484 1485 1487 1489 1490 1492 1493 1494 1495 1496 1496 1496 1496 1496 1496 1496 1495 1495 1495
1449 1450 1445 1444 1449 1448 1449 1449 1448 1448 1448 1449 1450 1451 1454 1456 1458 1462 1465 1468 1471 1474 1476 1479 1481 1483 1485 1486 1488 1489 1490 1491 1491 1492 1492 1492 1491 1491 1491 1490 1490 1490 1490 1489